Wind_Speed
37 36 36 35 35 34 33 32 31 28 26 24 25 22 22 27 24 23 29 27 22 12 24 22 21 12 6 6 4 3 5 5 4 4 3 4 4 2 4 4 4 6 7 10 2 4 12 5 4 3 4 4 7 10
40 41 41 41 41 37 35 34 34 31 30 29 25 25 22 27 26 25 32 31 25 21 16 17 18 20 20 14 6 7 7 3 4 4 3 3 6 6 5 12 3 4 2 2 2 3 5 5 9 4 3 7 9 12
44 43 45 46 46 44 39 37 36 36 34 33 30 27 25 29 28 29 33 31 20 18 23 21 15 19 18 19 17 8 9 7 4 4 2 3 6 4 7 6 3 3 1 3 1 6 3 7 4 4 5 7 10 11
47 46 46 45 45 44 42 40 39 38 38 37 35 29 31 30 30 30 35 33 20 7 5 3 8 8 11 14 17 20 9 8 8 4 5 3 4 2 2 3 3 3 1 2 2 3 7 9 3 5 8 9 10 12
37 39 42 43 43 41 39 39 40 39 39 37 36 32 31 32 32 32 33 29 22 16 2 1 6 10 10 9 5 7 9 7 6 4 4 3 1 2 3 1 3 0 1 2 2 4 4 3 6 7 8 10 11 12
36 36 37 38 38 38 39 38 38 37 37 38 36 39 30 35 37 31 9 17 22 25 3 2 3 4 6 6 7 7 4 3 2 2 1 2 1 3 3 2 3 3 1 1 2 4 8 11 7 5 10 11 12 14
36 36 36 35 36 36 37 36 36 35 34 36 33 34 28 31 36 21 8 6 19 18 3 2 3 2 6 4 2 2 4 2 2 3 2 2 2 3 2 3 9 3 2 3 2 7 5 0 5 12 11 11 12 11
34 35 36 37 36 35 34 34 33 32 29 29 30 29 23 33 23 14 10 12 19 15 5 3 2 3 2 1 2 2 2 3 4 3 3 2 3 1 3 5 5 2 2 7 2 4 7 9 11 11 11 10 10 10
35 36 36 34 32 33 33 32 31 28 25 22 25 25 28 17 8 8 13 14 18 9 4 2 3 3 2 2 2 2 2 2 1 1 2 2 2 4 4 9 6 1 1 3 6 5 6 8 10 10 11 10 11 11
36 36 36 34 30 30 29 29 27 23 24 22 24 12 7 7 8 14 8 8 8 4 2 2 3 2 3 1 2 1 2 1 2 2 1 2 2 4 6 6 5 2 2 4 6 4 8 9 11 13 12 12 11 12
35 36 36 33 30 28 27 27 25 23 28 25 12 8 17 18 9 5 3 2 2 1 2 3 3 3 3 0 2 3 1 1 2 3 2 2 3 7 10 7 4 3 4 6 8 9 10 13 16 17 15 13 12 11
35 34 33 34 29 26 24 23 20 19 18 21 10 17 19 7 3 3 2 2 3 1 3 2 4 4 3 3 1 1 1 2 1 2 2 3 3 11 11 8 6 6 8 9 10 11 12 13 15 17 16 15 13 12
33 32 31 30 29 25 21 19 30 30 27 19 5 8 7 3 5 6 8 3 3 7 6 5 3 3 3 2 2 2 3 1 1 2 2 1 9 10 7 7 8 9 10 11 11 11 12 14 14 15 16 13 13 12
32 29 27 30 30 24 20 23 33 34 19 7 9 6 5 5 1 3 3 4 5 10 12 9 6 2 2 2 0 3 2 1 2 3 3 3 12 9 5 8 11 10 11 11 11 11 12 13 15 13 13 12 12 10
31 32 28 31 27 20 21 20 35 39 9 5 3 3 3 6 8 8 12 9 8 13 13 7 5 2 2 3 1 2 3 3 4 2 1 6 10 8 11 10 9 11 11 11 12 12 12 13 14 12 9 10 9 8
27 29 30 27 14 10 23 28 33 19 6 5 6 5 11 8 4 5 9 8 10 12 9 4 3 3 2 1 3 4 2 4 1 2 6 4 9 11 11 10 11 12 12 12 12 11 13 13 13 11 8 6 6 5
18 21 14 13 3 12 28 22 9 7 7 5 4 10 9 14 10 7 7 7 15 7 2 2 4 2 2 2 2 3 3 1 5 3 4 6 9 9 10 12 12 11 12 12 11 11 13 13 10 8 8 6 5 6
18 19 25 33 18 21 17 4 6 6 6 6 4 6 9 11 14 9 8 15 7 5 5 2 7 4 3 3 2 2 4 3 4 4 5 6 8 7 9 10 9 10 12 10 11 13 11 8 6 6 7 6 5 8
16 15 23 22 21 11 5 6 6 6 6 7 11 12 11 12 12 11 13 11 7 6 9 4 2 2 2 2 2 4 3 4 3 4 5 6 6 7 7 9 8 7 9 11 10 7 7 7 6 6 5 5 5 7
18 23 31 27 23 5 7 6 6 7 4 4 9 9 8 8 9 10 10 8 7 4 2 2 1 2 2 3 3 3 3 3 3 3 3 3 3 6 5 4 6 8 7 7 7 7 6 4 4 5 5 6 6 8
20 26 27 19 6 10 8 5 7 6 7 7 11 5 7 7 5 3 3 6 2 2 1 3 4 4 4 2 2 3 3 3 3 3 3 2 4 2 5 5 5 4 5 6 6 5 5 5 5 5 6 7 8 9
11 18 8 9 7 7 9 8 9 7 5 8 5 5 7 3 4 3 4 3 3 2 4 5 7 6 4 3 3 3 4 5 4 3 4 5 5 4 4 4 3 4 4 4 5 5 5 5 3 6 7 10 10 11
18 12 6 6 7 6 5 5 4 4 4 3 4 4 2 2 3 5 2 3 4 7 8 7 7 8 6 4 4 4 4 4 4 5 5 5 5 4 4 4 4 4 5 5 6 6 6 5 8 8 9 10 12 11
15 5 5 5 6 5 5 4 4 5 5 2 2 4 3 2 4 2 2 2 5 9 12 10 10 10 8 8 7 6 5 5 6 6 5 5 4 4 4 4 6 6 7 7 5 5 6 8 9 11 10 10 11 11
5 7 5 6 4 4 4 4 3 2 3 2 3 3 3 3 2 2 2 3 10 14 14 13 13 12 9 8 7 7 6 6 6 6 5 6 6 5 4 5 6 6 6 5 5 6 8 9 9 9 11 12 10 6
6 7 5 2 2 3 3 4 3 4 4 3 3 3 2 2 2 3 2 9 12 15 15 14 13 13 13 11 9 7 6 6 6 6 6 6 7 6 5 6 6 7 6 5 9 10 10 9 10 12 12 11 11 14
4 4 6 6 6 6 5 6 4 3 3 4 4 4 3 3 4 2 7 10 9 10 10 10 9 8 8 8 8 7 6 6 6 6 6 6 7 7 7 7 7 6 7 8 11 12 11 11 11 12 13 13 13 13
6 6 4 4 6 7 4 3 2 2 2 4 7 3 7 5 3 6 7 11 10 10 10 9 8 7 7 6 6 7 7 7 7 8 8 8 8 9 8 8 7 8 7 14 15 13 12 12 12 16 16 14 12 11
6 4 5 5 5 8 7 4 2 3 2 5 0 2 1 1 7 8 13 13 11 11 9 8 7 6 6 6 6 7 8 8 9 9 9 9 9 7 7 7 7 8 9 10 10 10 11 12 14 16 16 12 10 9
5 7 5 5 4 5 5 3 4 5 4 3 2 3 3 4 7 11 13 13 12 10 8 8 7 6 5 6 6 7 7 8 8 9 10 10 10 9 8 7 8 10 13 13 12 11 11 11 10 11 12 11 10 9
4 4 5 6 4 4 6 7 8 7 5 5 5 3 3 3 7 10 12 13 13 13 12 10 9 7 7 6 6 6 6 7 7 8 9 9 9 8 6 6 8 11 13 13 12 12 11 12 12 12 11 10 11 12
7 6 4 4 2 3 5 3 3 3 3 2 2 2 0 1 4 5 10 17 17 16 12 12 10 7 7 6 6 6 6 6 6 6 7 7 8 7 3 6 10 12 14 13 13 13 13 13 13 13 13 12 12 12
5 7 7 5 3 1 2 2 3 2 3 2 2 3 2 3 5 4 5 10 14 13 10 9 9 10 8 7 7 8 7 7 7 7 7 7 7 9 10 13 15 17 17 15 16 16 15 15 15 14 14 14 14 13
Wind_Direction
296 298 299 300 300 300 296 290 287 281 277 277 279 277 287 287 279 265 260 260 249 253 264 260 245 237 195 198 235 250 290 195 218 243 248 262 259 270 259 266 242 268 276 266 251 273 267 19 166 248 20 336 343 341
288 291 292 292 293 295 295 290 283 276 274 272 275 277 280 288 280 267 252 261 266 247 263 269 248 242 237 234 214 208 230 176 251 258 228 263 246 261 278 289 133 233 280 312 314 354 112 70 91 67 348 325 341 329
282 282 284 287 288 288 287 288 282 277 270 267 268 270 276 284 280 259 255 257 261 254 262 260 255 252 238 236 233 232 227 226 221 218 293 272 260 280 269 294 117 150 172 245 189 160 178 141 155 29 5 336 326 322
284 285 285 286 288 288 286 282 284 275 269 267 265 267 272 282 276 264 250 260 252 240 266 219 244 229 226 221 217 216 239 245 262 257 253 249 269 40 342 344 267 32 233 195 188 146 153 159 61 3 335 331 328 323
291 290 290 290 288 287 287 287 284 283 269 271 267 272 273 290 286 261 250 265 251 211 266 236 228 237 226 224 220 225 217 224 230 224 233 263 67 269 94 307 198 317 69 228 44 78 320 302 348 341 330 328 327 322
289 288 289 290 291 290 289 287 286 285 276 271 273 270 273 281 268 248 254 254 229 224 235 256 210 170 179 160 166 147 125 146 167 244 155 110 69 271 243 252 128 151 170 245 319 313 289 283 292 341 326 318 315 316
293 292 291 290 289 289 288 286 284 286 284 276 273 281 279 253 255 230 221 203 196 204 193 246 193 145 163 166 160 98 69 84 101 126 161 157 175 306 259 253 144 176 242 244 299 318 273 172 304 312 315 312 313 312
300 297 294 292 292 292 290 289 286 284 281 278 273 282 242 214 224 222 213 175 180 182 183 242 142 157 98 120 147 66 129 126 58 110 124 154 142 199 229 135 152 173 283 181 318 302 282 289 304 306 308 315 316 316
299 299 300 298 298 297 295 294 288 282 281 286 262 210 193 196 204 207 201 195 193 187 201 198 201 162 91 85 79 82 99 117 52 123 117 245 181 224 114 165 167 138 146 267 299 299 288 301 301 306 312 312 316 323
298 301 302 302 299 301 301 296 289 280 289 221 199 171 186 189 178 147 138 167 189 197 107 89 104 118 27 60 92 221 30 121 215 82 118 234 234 119 155 166 176 198 273 309 320 324 310 304 309 312 310 312 313 318
292 297 299 301 298 295 300 299 290 268 204 193 181 162 144 147 138 157 123 199 162 132 64 90 66 115 38 39 88 28 148 148 227 106 259 211 239 184 186 187 196 245 282 281 283 293 298 295 303 307 306 304 305 310
289 294 296 300 299 296 298 309 238 220 207 194 175 120 135 181 143 160 159 119 221 150 96 104 88 77 87 87 167 110 225 203 232 118 239 243 126 153 180 195 219 262 291 296 286 285 289 289 294 295 295 297 298 302
286 290 294 299 299 294 288 286 237 225 212 165 139 136 158 160 194 206 185 181 158 156 149 146 114 103 105 104 93 200 197 155 128 226 242 32 144 171 190 233 254 273 293 297 290 289 294 293 293 293 289 288 291 295
288 287 290 293 295 290 281 291 228 202 180 166 156 160 210 167 202 45 52 89 97 123 127 120 107 110 120 129 19 192 77 241 237 236 235 152 182 184 258 274 266 275 288 291 289 287 298 302 300 295 285 287 289 290
293 291 291 292 291 272 266 222 211 192 164 117 139 150 89 101 75 88 100 100 109 141 131 110 98 141 99 115 17 130 171 240 231 247 105 166 185 262 291 289 274 287 288 294 293 290 300 305 303 298 288 286 286 286
296 298 302 298 280 211 198 205 176 175 87 87 77 101 120 104 114 96 100 111 136 145 120 96 118 136 113 118 181 211 222 233 142 172 156 199 273 288 290 282 281 285 288 294 293 294 304 305 301 294 295 289 291 279
294 293 257 206 256 221 189 158 147 76 85 75 86 93 103 98 120 122 124 138 149 140 138 142 156 108 115 174 225 207 228 63 145 190 258 271 279 282 279 279 284 278 286 295 287 293 302 302 292 290 296 286 286 288
264 265 273 270 265 183 155 90 86 82 78 82 121 98 81 104 119 116 127 145 139 162 155 134 129 174 196 205 211 178 207 202 243 261 268 267 281 281 286 293 292 284 287 282 286 296 299 294 285 296 298 296 306 309
264 274 225 223 222 176 94 49 45 84 73 96 99 96 93 97 103 128 141 157 152 147 132 138 151 188 207 191 169 168 199 219 247 268 272 284 277 282 291 295 292 291 286 290 291 284 290 280 277 294 308 299 303 309
257 219 204 215 200 112 86 58 64 81 88 105 104 92 88 96 118 120 124 131 138 137 142 170 187 146 138 184 194 194 216 228 230 271 282 271 274 298 293 274 286 281 298 296 302 297 279 273 272 285 278 297 290 313
183 182 186 178 94 67 83 77 64 75 104 88 114 77 90 109 107 124 142 160 169 200 193 191 172 176 183 179 206 236 256 277 260 254 256 255 276 276 283 288 294 295 285 295 301 300 271 263 273 280 297 296 297 298
165 168 130 149 77 73 73 59 103 100 69 115 98 89 109 134 149 166 171 204 231 204 180 175 183 186 194 216 241 255 273 282 277 263 240 254 254 278 272 277 283 274 283 287 290 294 291 280 246 315 291 292 289 295
150 145 93 77 86 66 98 83 82 66 110 137 121 102 102 121 168 157 229 235 231 206 187 178 181 190 202 218 244 260 272 272 264 255 244 251 265 264 268 270 277 285 288 288 286 286 284 279 283 296 297 284 294 293
124 94 65 66 72 93 117 75 89 97 103 158 116 105 134 129 158 201 253 228 212 185 187 193 196 200 212 231 247 264 265 257 251 251 253 252 251 256 256 274 293 297 293 291 292 296 293 294 299 294 298 295 289 286
84 24 55 65 92 119 106 115 108 108 109 132 116 135 155 162 171 194 246 201 190 188 193 200 207 213 224 234 240 252 254 250 247 248 252 243 237 241 260 285 297 304 293 264 288 299 296 297 301 302 298 291 293 298
73 17 26 75 117 93 134 117 136 127 120 116 82 114 143 155 149 228 211 188 185 193 200 205 210 216 225 232 240 248 251 247 245 245 250 242 235 237 255 272 286 295 295 278 301 302 300 298 299 300 301 296 290 282
76 55 43 53 80 97 98 76 107 116 115 145 159 159 148 148 217 228 173 168 174 182 187 198 208 216 225 228 231 235 239 238 238 242 249 243 239 244 254 265 276 288 276 296 309 311 300 299 299 303 305 304 299 295
60 32 65 28 60 30 99 91 74 70 101 132 142 162 167 175 172 166 168 172 171 176 182 186 192 200 210 215 223 229 231 232 234 240 247 253 255 254 257 265 277 290 301 298 304 303 300 305 315 314 310 306 305 298
49 35 75 57 57 47 39 30 54 52 107 167 157 141 219 188 159 158 163 170 175 179 185 190 193 198 205 216 225 231 234 237 239 242 249 253 258 260 255 267 282 297 300 303 297 283 289 307 318 302 299 301 299 294
32 27 81 53 50 25 2 42 72 96 89 101 94 96 95 132 162 165 174 181 186 188 191 201 207 212 218 227 234 240 245 251 253 254 257 259 260 258 266 284 299 307 310 307 303 295 290 288 290 288 291 291 286 283
45 49 75 56 74 50 71 79 80 74 67 65 78 89 121 152 191 199 200 199 203 210 215 218 222 227 234 243 254 263 269 269 265 259 254 251 249 247 254 292 312 317 317 311 305 302 296 293 297 298 296 291 283 278
28 44 101 95 112 146 10 37 46 65 47 49 34 39 314 246 248 226 231 221 222 224 221 224 229 237 243 247 258 266 271 276 275 268 260 256 238 227 261 326 319 320 321 316 314 310 306 302 299 298 298 295 290 285
61 60 73 93 84 48 35 46 38 41 53 29 357 338 310 274 261 254 255 231 227 228 228 233 232 237 243 248 253 259 268 274 278 278 277 269 264 240 288 309 304 307 306 308 312 311 307 303 301 298 297 299 298 295
Height
1499 1496 1493 1490 1486 1483 1480 1478 1475 1473 1471 1469 1468 1467 1464 1464 1462 1461 1456 1455 1454 1447 1440 1440 1439 1439 1439 1440 1439 1438 1440 1439 1439 1436 1428 1418 1416 1414 1421 1416 1420 1422 1417 1408 1417 1416 1411 1441 1440 1438 1446 1446 1445 1445
1489 1486 1483 1480 1477 1473 1470 1468 1465 1462 1460 1459 1458 1457 1455 1454 1453 1451 1447 1446 1445 1443 1434 1431 1429 1430 1430 1432 1434 1434 1432 1433 1430 1429 1427 1426 1421 1416 1420 1419 1432 1428 1429 1427 1430 1426 1441 1442 1443 1444 1445 1445 1443 1444
1476 1473 1471 1468 1465 1462 1459 1456 1453 1451 1449 1448 1447 1446 1445 1444 1443 1441 1437 1436 1436 1435 1428 1424 1422 1423 1423 1424 1427 1431 1428 1428 1428 1428 1427 1424 1422 1415 1413 1407 1424 1436 1438 1432 1435 1439 1439 1441 1443 1443 1444 1443 1442 1442
1463 1460 1458 1455 1452 1449 1446 1443 1441 1439 1438 1436 1436 1435 1434 1433 1432 1431 1428 1428 1429 1430 1427 1420 1419 1419 1418 1419 1420 1421 1424 1426 1427 1428 1425 1423 1420 1425 1418 1424 1425 1432 1436 1431 1431 1438 1439 1441 1442 1443 1443 1441 1440 1439
1450 1447 1444 1442 1439 1436 1434 1432 1430 1427 1427 1427 1426 1426 1425 1424 1423 1421 1420 1419 1420 1425 1419 1418 1417 1416 1416 1415 1416 1418 1419 1422 1424 1425 1424 1422 1426 1428 1430 1432 1429 1436 1436 1432 1429 1440 1441 1441 1442 1442 1442 1440 1439 1437
1439 1436 1433 1430 1427 1424 1422 1420 1418 1417 1416 1415 1415 1414 1415 1415 1411 1412 1411 1410 1411 1414 1417 1417 1416 1414 1415 1415 1417 1417 1419 1420 1421 1421 1424 1427 1430 1431 1425 1423 1438 1439 1441 1441 1440 1442 1442 1442 1441 1440 1440 1438 1436 1435
1429 1426 1422 1419 1416 1413 1411 1409 1407 1406 1405 1405 1405 1405 1406 1403 1403 1404 1403 1403 1405 1411 1415 1414 1411 1413 1414 1416 1416 1417 1419 1420 1422 1424 1425 1427 1430 1430 1427 1420 1435 1440 1441 1441 1441 1440 1439 1439 1439 1438 1437 1436 1433 1432
1419 1416 1412 1408 1405 1403 1400 1398 1397 1396 1394 1394 1397 1397 1397 1393 1395 1397 1398 1400 1404 1408 1411 1408 1407 1412 1413 1415 1417 1417 1419 1421 1424 1425 1428 1428 1432 1431 1429 1435 1437 1439 1440 1440 1440 1439 1439 1438 1437 1436 1434 1433 1430 1429
1410 1407 1403 1399 1395 1393 1390 1389 1387 1386 1386 1386 1386 1386 1389 1391 1392 1392 1395 1399 1401 1406 1403 1405 1400 1403 1412 1414 1416 1418 1418 1421 1427 1426 1428 1431 1431 1427 1429 1434 1436 1438 1439 1439 1438 1437 1436 1435 1435 1433 1432 1430 1428 1426
1401 1398 1394 1390 1387 1384 1382 1379 1378 1379 1380 1375 1379 1383 1384 1386 1388 1392 1396 1398 1399 1399 1400 1404 1408 1409 1414 1414 1417 1420 1420 1420 1419 1429 1430 1428 1425 1432 1433 1434 1435 1436 1437 1437 1436 1435 1434 1433 1432 1431 1429 1428 1425 1423
1390 1388 1385 1381 1378 1376 1374 1371 1369 1370 1369 1372 1374 1377 1380 1385 1389 1392 1395 1397 1400 1400 1402 1407 1409 1411 1416 1416 1417 1421 1419 1421 1417 1425 1425 1423 1421 1428 1431 1433 1434 1434 1434 1434 1434 1433 1432 1431 1429 1427 1426 1424 1422 1420
1379 1377 1375 1372 1369 1368 1367 1365 1361 1361 1362 1366 1369 1375 1384 1386 1387 1389 1392 1399 1397 1395 1406 1408 1412 1414 1417 1417 1418 1422 1418 1421 1416 1427 1425 1416 1422 1426 1428 1431 1431 1432 1432 1431 1430 1429 1428 1427 1426 1424 1422 1421 1419 1417
1367 1366 1364 1362 1360 1359 1360 1360 1355 1353 1357 1361 1366 1372 1376 1384 1383 1379 1382 1391 1395 1399 1404 1407 1412 1415 1417 1419 1420 1420 1417 1419 1427 1423 1414 1416 1424 1426 1427 1428 1428 1428 1428 1428 1427 1426 1425 1423 1422 1420 1418 1417 1416 1414
1358 1354 1353 1351 1349 1350 1351 1351 1346 1348 1353 1355 1359 1367 1367 1373 1373 1376 1379 1385 1395 1398 1402 1406 1411 1414 1417 1418 1422 1416 1426 1426 1421 1420 1409 1417 1422 1424 1425 1424 1424 1425 1425 1424 1423 1422 1421 1420 1418 1416 1414 1413 1412 1411
1351 1347 1343 1339 1337 1336 1338 1339 1337 1341 1344 1350 1354 1357 1371 1381 1384 1385 1386 1391 1395 1399 1401 1406 1410 1414 1417 1420 1422 1423 1424 1416 1411 1403 1414 1418 1420 1421 1420 1420 1421 1421 1421 1420 1419 1418 1417 1416 1414 1412 1411 1410 1409 1408
1343 1340 1337 1330 1324 1324 1326 1329 1332 1337 1342 1351 1361 1371 1376 1378 1385 1387 1390 1393 1396 1400 1402 1405 1409 1412 1417 1418 1417 1412 1413 1405 1406 1415 1417 1417 1418 1417 1417 1417 1417 1417 1417 1416 1415 1414 1413 1412 1411 1409 1408 1407 1407 1406
1337 1333 1330 1327 1326 1324 1323 1328 1332 1335 1346 1358 1365 1366 1368 1372 1379 1386 1389 1393 1396 1400 1401 1404 1404 1408 1422 1417 1415 1418 1409 1409 1413 1415 1415 1415 1415 1414 1414 1414 1414 1414 1413 1412 1411 1411 1410 1409 1407 1407 1406 1405 1404 1404
1330 1330 1330 1329 1327 1325 1326 1327 1333 1343 1355 1363 1366 1370 1370 1373 1380 1385 1389 1392 1396 1398 1400 1401 1407 1410 1406 1404 1403 1408 1410 1411 1412 1413 1413 1413 1411 1411 1411 1411 1410 1410 1409 1409 1408 1407 1406 1405 1405 1405 1403 1403 1402 1401
1322 1323 1323 1325 1326 1326 1329 1337 1341 1353 1364 1366 1368 1370 1375 1379 1383 1386 1390 1394 1396 1396 1398 1401 1402 1402 1402 1405 1406 1407 1409 1410 1411 1411 1410 1409 1408 1409 1409 1408 1407 1407 1406 1406 1405 1404 1404 1403 1402 1402 1401 1401 1401 1400
1315 1315 1315 1319 1323 1323 1334 1345 1349 1356 1365 1371 1371 1375 1379 1384 1388 1390 1393 1395 1397 1398 1399 1399 1398 1401 1403 1404 1405 1405 1407 1407 1408 1409 1408 1408 1407 1407 1406 1406 1406 1405 1404 1403 1403 1403 1402 1401 1401 1401 1400 1399 1399 1398
1310 1310 1315 1319 1323 1329 1340 1349 1356 1363 1370 1373 1376 1379 1385 1388 1391 1393 1396 1397 1397 1396 1396 1396 1398 1401 1402 1402 1403 1404 1405 1405 1405 1405 1405 1405 1406 1405 1405 1404 1403 1403 1403 1402 1402 1401 1401 1400 1400 1399 1398 1398 1397 1396
1311 1315 1318 1321 1327 1337 1347 1353 1360 1366 1372 1377 1380 1382 1386 1390 1393 1395 1396 1397 1395 1393 1394 1395 1397 1399 1400 1401 1402 1402 1402 1402 1402 1402 1403 1403 1403 1403 1402 1402 1402 1401 1401 1400 1400 1399 1399 1398 1398 1397 1397 1396 1395 1393
1313 1317 1320 1324 1333 1345 1360 1359 1362 1370 1376 1380 1381 1384 1389 1392 1394 1395 1396 1393 1391 1391 1392 1394 1396 1398 1399 1400 1400 1400 1399 1399 1399 1400 1400 1400 1400 1399 1399 1399 1399 1399 1398 1398 1397 1396 1396 1396 1396 1395 1394 1392 1391 1390
1316 1319 1324 1331 1340 1353 1359 1362 1366 1371 1377 1380 1380 1386 1391 1393 1394 1395 1391 1389 1387 1388 1390 1392 1394 1396 1397 1397 1397 1397 1397 1397 1397 1397 1397 1397 1397 1397 1397 1397 1397 1396 1396 1395 1394 1394 1394 1393 1393 1391 1390 1388 1387 1386
1320 1333 1335 1342 1347 1351 1356 1360 1365 1369 1375 1378 1382 1388 1391 1393 1392 1392 1387 1384 1385 1386 1388 1390 1392 1393 1394 1394 1394 1395 1395 1395 1395 1395 1395 1395 1395 1395 1395 1395 1394 1394 1393 1392 1392 1392 1391 1390 1389 1388 1386 1385 1383 1382
1332 1340 1341 1343 1347 1347 1354 1358 1361 1367 1372 1378 1385 1389 1390 1390 1390 1384 1381 1379 1381 1383 1384 1387 1389 1390 1391 1391 1392 1392 1392 1392 1393 1393 1393 1393 1393 1393 1393 1393 1392 1392 1391 1390 1390 1389 1388 1387 1386 1384 1382 1381 1380 1378
1339 1345 1346 1347 1349 1351 1356 1361 1364 1364 1369 1374 1381 1387 1387 1388 1383 1378 1377 1378 1380 1382 1384 1386 1388 1388 1389 1389 1389 1389 1390 1390 1391 1391 1391 1390 1390 1391 1391 1391 1390 1390 1388 1388 1387 1386 1385 1384 1382 1380 1378 1376 1375 1373
1347 1349 1349 1354 1354 1356 1357 1361 1363 1367 1370 1373 1377 1381 1379 1375 1376 1376 1376 1378 1380 1382 1384 1385 1385 1386 1386 1386 1387 1387 1387 1388 1388 1388 1388 1388 1388 1388 1388 1388 1387 1386 1385 1384 1384 1382 1382 1380 1379 1377 1375 1372 1371 1370
1353 1355 1355 1358 1360 1364 1369 1370 1371 1373 1374 1375 1375 1375 1375 1373 1374 1374 1376 1378 1381 1382 1383 1383 1383 1384 1384 1384 1385 1385 1385 1385 1386 1385 1385 1385 1385 1386 1385 1385 1384 1383 1382 1381 1380 1380 1379 1377 1377 1374 1371 1370 1368 1367
1359 1359 1361 1366 1370 1375 1376 1374 1375 1375 1376 1376 1376 1375 1375 1375 1375 1376 1378 1379 1380 1380 1381 1382 1382 1382 1382 1382 1383 1382 1382 1382 1382 1382 1382 1383 1383 1383 1382 1381 1380 1379 1378 1377 1376 1375 1374 1372 1371 1369 1367 1366 1365 1364
1364 1364 1367 1372 1378 1380 1380 1379 1378 1378 1377 1377 1377 1377 1377 1377 1378 1378 1378 1378 1379 1379 1379 1380 1380 1381 1381 1381 1381 1381 1381 1381 1380 1380 1380 1379 1380 1380 1379 1379 1378 1377 1375 1373 1372 1371 1370 1368 1367 1365 1364 1362 1361 1360
1368 1370 1372 1378 1383 1383 1381 1380 1379 1380 1380 1380 1379 1379 1379 1379 1378 1376 1374 1374 1375 1375 1377 1378 1378 1379 1379 1379 1379 1379 1379 1378 1378 1378 1377 1377 1377 1377 1376 1376 1375 1374 1372 1371 1369 1367 1366 1364 1363 1361 1360 1359 1358 1356
1376 1375 1376 1378 1381 1382 1382 1382 1381 1381 1381 1381 1380 1380 1379 1379 1376 1373 1371 1371 1372 1374 1376 1377 1377 1377 1377 1377 1377 1377 1376 1376 1376 1376 1375 1374 1374 1374 1374 1373 1372 1371 1369 1367 1366 1364 1362 1360 1359 1357 1356 1354 1353 1352